Location: Chippewa Lake
(41.0698°N, 81.9010°W)
Time: 02:05:09
(UTC+00:00)

Cosmos 1833 Rocket - Pass Details

Date: 09 May 2021
Orbit: 831 x 841 km, 71.0° (Epoch: 24 June)

Event Time Altitude Azimuth Distance (km) Brightness Sun altitude
Rises 02:52:03 0° 340° (NNW) 3,403 7.1 -21.7°
Reaches altitude 10° 02:54:35 10° 346° (NNW) 2,465 6.0 -22.0°
Maximum altitude 03:00:06 51° 62° (ENE) 1,050 3.1 -22.7°
Enters shadow 03:01:19 43° 101° (E) 1,161 3.0 -22.8°
